Location: Central Falls
(41.8900°N, 71.3929°W)
Time: 11:00:45
(UTC+00:00)

A-11 Canister half - Pass Details

Date: 09 December 2023
Orbit: 1512 x 1687 km, 47.2° (Epoch: 20 February)

Event Time Altitude Azimuth Distance (km) Brightness Sun altitude
Rises 06:19:02 0° 271° (W) 4,747 - -61.5°
Reaches altitude 10° 06:22:07 10° 275° (W) 3,786 - -61.0°
Maximum altitude 06:31:44 65° 357° (N) 1,763 - -59.5°
Exits shadow 06:39:00 21° 74° (ENE) 3,118 10.8 -58.3°
Drops below altitude 10° 06:41:43 10° 78° (ENE) 3,919 11.5 -57.9°
Sets 06:44:58 0° 82° (E) 4,922 12.1 -57.3°
